This is the latest recevied weather packets stored in our database for station/object W9LRT-WX. If no packets are shown the sender has not sent any weather packets the latest 10 day(s).
| Time | Temp. | Humidity | Pressure | Rain* | Wind** | Luminosity | Snow |
|---|---|---|---|---|---|---|---|
| 1777582982 | 12.78° C | 49% | 1013.1 hPa | 0 mm | - | 234 W/m² | - |
| 1777582081 | 13.33° C | 48% | 1013.2 hPa | 0 mm | - | 295 W/m² | - |
| 1777581181 | 13.33° C | 50% | 1013.5 hPa | 0 mm | - | 260 W/m² | - |
| 1777580279 | 12.78° C | 49% | 1013.5 hPa | 0 mm | - | 295 W/m² | - |
| 1777579379 | 13.33° C | 47% | 1013.6 hPa | 0 mm | - | 237 W/m² | - |
| 1777578479 | 13.89° C | 46% | 1013.6 hPa | 0 mm | - | 418 W/m² | - |
| 1777577579 | 13.89° C | 46% | 1014 hPa | 0 mm | - | 394 W/m² | - |
| 1777576678 | 12.78° C | 50% | 1014.2 hPa | 0 mm | - | 352 W/m² | - |
| 1777575777 | 13.33° C | 48% | 1014.2 hPa | 0 mm | - | 378 W/m² | - |
| 1777574877 | 13.33° C | 47% | 1014.1 hPa | 0 mm | - | 926 W/m² | - |
| 1777573975 | 13.33° C | 50% | 1014.3 hPa | 0 mm | - | 279 W/m² | - |
| 1777573076 | 13.33° C | 47% | 1014.3 hPa | 0 mm | - | 976 W/m² | - |
| 1777572177 | 13.33° C | 48% | 1014.4 hPa | 0 mm | - | 1055 W/m² | - |
| 1777571276 | 13.33° C | 49% | 1014.6 hPa | 0 mm | - | 953 W/m² | - |
| 1777570375 | 12.78° C | 51% | 1014.8 hPa | 0 mm | - | 325 W/m² | - |
| 1777569474 | 12.78° C | 53% | 1015 hPa | 0 mm | - | 1053 W/m² | - |
| 1777568574 | 12.78° C | 52% | 1015.1 hPa | 0 mm | - | 944 W/m² | - |
| 1777567674 | 13.33° C | 57% | 1015.1 hPa | 0 mm | - | 1018 W/m² | - |
| 1777566774 | 11.67° C | 53% | 1015.3 hPa | 0 mm | - | 1041 W/m² | - |
| 1777565874 | 11.67° C | 49% | 1015.4 hPa | 0 mm | - | 889 W/m² | - |
| 1777564974 | 11.67° C | 54% | 1015.4 hPa | 0 mm | - | 513 W/m² | - |
| 1777564077 | 10.56° C | 61% | 1015.5 hPa | 0 mm | - | 213 W/m² | - |
| 1777563174 | 10° C | 70% | 1015.4 hPa | 0 mm | - | 889 W/m² | - |
| 1777562272 | 10.56° C | 72% | 1015.5 hPa | 0 mm | - | 793 W/m² | - |
| 1777561372 | 10° C | 73% | 1015.5 hPa | 0 mm | - | 765 W/m² | - |
* Rain latest hour (hover to see other rain measurements)
** Current wind speed in m/s (hover to see current wind gust speed)